Skip Page Navigation
NASA JPL Caltech
NASA Logo - Jet Propulsion Laboratory + View the NASA Portal
+ Center for Near-Earth Object Studies
JPL Home Earth Solar System Stars & Galaxies Technology
JPL Solar System Dynamics
BODIES ORBITS EPHEMERIDES TOOLS PHYSICAL DATA DISCOVERY FAQ SITE MAP
JPL Small-Body Database Browser
Search: [ help ]  
52356 (1993 FP25)
Classification: Main-belt Asteroid          SPK-ID: 2052356
Ephemeris | Orbit Diagram | Orbital Elements | Mission Design | Physical Parameters | Discovery Circumstances | Close-Approach Data ]

[ show orbit diagram ]
Orbital Elements at Epoch 2459200.5 (2020-Dec-17.0) TDB
Reference: JPL 29 (heliocentric ecliptic J2000)
 Element Value Uncertainty (1-sigma)   Units 
e .1052663432033167 4.4948e-08  
a 3.167834071405182 2.1463e-08 au
q 2.834367762833484 1.4445e-07 au
i 4.863177975323957 5.4417e-06 deg
node 206.1996129999234 5.286e-05 deg
peri 289.4060619495907 5.9739e-05 deg
M 18.20233417028577 2.5574e-05 deg
tp 2459096.372210842021
(2020-Sep-03.87221084)
0.00014629 TDB
period 2059.406433602684
5.64
2.0929e-05
5.73e-08
d
yr
n .1748076504598576 1.7765e-09 deg/d
Q 3.50130037997688 2.3722e-08 au
  Orbit Determination Parameters
   # obs. used (total)      862  
   data-arc span      10229 days (28.01 yr)  
   first obs. used      1993-03-21  
   last obs. used      2021-03-23  
   planetary ephem.      DE441  
   SB-pert. ephem.      SB441-N16  
   condition code      0  
   norm. resid. RMS      .54319  
   source      ORB  
   producer      Otto Matic  
   solution date      2021-May-04 06:18:03  

Additional Information
 Earth MOID = 1.85284 au 
 Jupiter MOID = 1.5618 au 
 T_jup = 3.189 
[ show covariance matrix ]

Ephemeris | Orbit Diagram | Orbital Elements | Mission Design | Physical Parameters | Discovery Circumstances | Close-Approach Data ]

Physical Parameter Table
Parameter Symbol Value Units Sigma Reference Notes
absolute magnitude H 14.66   n/a E2021B10  
diameter diameter 6.060 km 0.143 urn:nasa:pds:neowise_diameters_albedos::2.0[mainbelt] (http://adsabs.harvard.edu/abs/2011ApJ...741...68M)  
geometric albedo albedo 0.064   0.010 urn:nasa:pds:neowise_diameters_albedos::2.0[mainbelt] (http://adsabs.harvard.edu/abs/2011ApJ...741...68M)  

52356 (1993 FP25)          Discovered 1993-Mar-21 by UESAC at La Silla
Reference: 20030216/Numbers.arcLast Updated: 2004-04-19

[ show close-approach data ]
Alternate Designations
 1993 FP25 = 2001 SX94 
Ephemeris | Orbit Diagram | Orbital Elements | Mission Design | Physical Parameters | Discovery Circumstances | Close-Approach Data ]
ABOUT SSD CREDITS/AWARDS PRIVACY/COPYRIGHT GLOSSARY LINKS
FirstGov 2021-Jun-18 04:19 UT
(server date/time)  
NASA Home Page
Site Manager:   Ryan S. Park
Webmaster  Alan B. Chamberlin